QPF
0.00 0.00 0.00 0.00 0.00 0.00 0.00 0.00 0.00 0.00 0.00 0.00 0.00 0.00 0.00 0.00 0.00 0.00 0.00 0.00 0.00 0.00 0.00 0.00 0.00 0.00 0.00 0.00 0.00 0.00 0.00 0.00 0.00 0.00 0.00 0.00 0.00 0.00 0.00 0.00 0.00 0.00
0.00 0.00 0.00 0.00 0.00 0.00 0.00 0.00 0.00 0.00 0.00 0.00 0.00 0.00 0.00 0.00 0.00 0.00 0.00 0.00 0.00 0.00 0.00 0.00 0.00 0.00 0.00 0.00 0.00 0.00 0.00 0.00 0.00 0.00 0.00 0.00 0.00 0.00 0.00 0.00 0.00 0.00
0.00 0.00 0.00 0.00 0.00 0.00 0.00 0.00 0.00 0.00 0.00 0.00 0.00 0.00 0.00 0.00 0.00 0.00 0.00 0.00 0.00 0.00 0.00 0.00 0.00 0.00 0.00 0.00 0.00 0.00 0.00 0.00 0.00 0.00 0.00 0.00 0.00 0.00 0.00 0.00 0.00 0.00
0.00 0.00 0.00 0.00 0.00 0.00 0.00 0.00 0.00 0.00 0.00 0.00 0.00 0.00 0.00 0.00 0.00 0.00 0.00 0.00 0.00 0.00 0.00 0.00 0.00 0.00 0.00 0.00 0.00 0.00 0.00 0.00 0.00 0.00 0.00 0.00 0.00 0.00 0.00 0.00 0.00 0.00
0.00 0.00 0.00 0.00 0.00 0.00 0.00 0.00 0.00 0.00 0.00 0.00 0.00 0.00 0.00 0.00 0.00 0.00 0.00 0.00 0.00 0.00 0.00 0.00 0.00 0.00 0.00 0.00 0.00 0.00 0.00 0.00 0.00 0.00 0.00 0.00 0.00 0.00 0.00 0.00 0.00 0.00
0.00 0.00 0.00 0.00 0.00 0.00 0.00 0.00 0.00 0.00 0.00 0.00 0.00 0.00 0.00 0.00 0.00 0.00 0.00 0.00 0.00 0.00 0.00 0.00 0.00 0.00 0.00 0.00 0.00 0.00 0.00 0.00 0.00 0.00 0.00 0.00 0.00 0.00 0.00 0.00 0.00 0.00
0.00 0.00 0.00 0.00 0.00 0.00 0.00 0.00 0.00 0.00 0.00 0.00 0.00 0.00 0.00 0.00 0.00 0.00 0.00 0.00 0.00 0.00 0.00 0.00 0.00 0.00 0.00 0.00 0.00 0.00 0.00 0.00 0.00 0.00 0.00 0.00 0.00 0.00 0.00 0.00 0.00 0.00
0.00 0.00 0.00 0.00 0.00 0.00 0.00 0.00 0.00 0.00 0.00 0.00 0.00 0.00 0.00 0.00 0.00 0.00 0.00 0.00 0.00 0.00 0.00 0.00 0.00 0.00 0.00 0.00 0.00 0.00 0.00 0.00 0.00 0.00 0.00 0.00 0.00 0.00 0.00 0.00 0.00 0.00
0.00 0.00 0.00 0.00 0.00 0.00 0.00 0.00 0.00 0.00 0.00 0.00 0.00 0.00 0.00 0.00 0.00 0.00 0.00 0.00 0.00 0.00 0.00 0.00 0.00 0.00 0.00 0.00 0.00 0.00 0.00 0.00 0.00 0.00 0.00 0.00 0.00 0.00 0.00 0.00 0.00 0.00
0.00 0.00 0.00 0.00 0.00 0.00 0.00 0.00 0.00 0.00 0.00 0.00 0.00 0.00 0.00 0.00 0.00 0.00 0.00 0.00 0.00 0.00 0.00 0.00 0.00 0.00 0.00 0.00 0.00 0.00 0.00 0.00 0.00 0.00 0.00 0.00 0.00 0.00 0.00 0.00 0.00 0.00
0.00 0.00 0.00 0.00 0.00 0.00 0.00 0.00 0.00 0.00 0.00 0.00 0.00 0.00 0.00 0.00 0.00 0.00 0.00 0.00 0.00 0.00 0.00 0.00 0.00 0.00 0.00 0.00 0.00 0.00 0.00 0.00 0.00 0.00 0.00 0.00 0.00 0.00 0.00 0.00 0.00 0.00
0.00 0.00 0.00 0.00 0.00 0.00 0.00 0.00 0.00 0.00 0.00 0.00 0.00 0.00 0.00 0.00 0.00 0.00 0.00 0.00 0.00 0.00 0.00 0.00 0.00 0.00 0.00 0.00 0.00 0.00 0.00 0.00 0.00 0.00 0.00 0.00 0.00 0.00 0.00 0.00 0.00 0.00
0.00 0.00 0.00 0.00 0.00 0.00 0.00 0.00 0.00 0.00 0.00 0.00 0.00 0.00 0.00 0.00 0.00 0.00 0.00 0.00 0.00 0.00 0.00 0.00 0.00 0.00 0.00 0.00 0.00 0.00 0.00 0.00 0.00 0.00 0.00 0.00 0.00 0.00 0.00 0.00 0.00 0.00
0.00 0.00 0.00 0.00 0.00 0.00 0.00 0.00 0.00 0.00 0.00 0.00 0.00 0.00 0.00 0.00 0.00 0.00 0.00 0.00 0.00 0.00 0.00 0.00 0.00 0.00 0.00 0.00 0.00 0.00 0.00 0.00 0.00 0.00 0.00 0.00 0.00 0.00 0.00 0.00 0.00 0.00
0.00 0.00 0.00 0.00 0.00 0.00 0.00 0.00 0.00 0.00 0.00 0.00 0.00 0.00 0.00 0.00 0.00 0.00 0.00 0.00 0.00 0.00 0.00 0.00 0.00 0.00 0.00 0.00 0.00 0.00 0.00 0.00 0.00 0.00 0.00 0.00 0.00 0.00 0.00 0.00 0.00 0.00
0.00 0.00 0.00 0.00 0.00 0.00 0.00 0.00 0.00 0.00 0.00 0.00 0.00 0.00 0.00 0.00 0.00 0.00 0.00 0.00 0.00 0.00 0.00 0.00 0.00 0.00 0.00 0.00 0.00 0.00 0.00 0.00 0.00 0.00 0.00 0.00 0.00 0.00 0.00 0.00 0.00 0.00
0.00 0.00 0.00 0.00 0.00 0.00 0.00 0.00 0.00 0.00 0.00 0.00 0.00 0.00 0.00 0.00 0.00 0.00 0.00 0.00 0.00 0.00 0.00 0.00 0.00 0.00 0.00 0.00 0.00 0.00 0.00 0.00 0.00 0.00 0.00 0.00 0.00 0.00 0.00 0.00 0.00 0.00
0.00 0.00 0.00 0.00 0.00 0.00 0.00 0.00 0.00 0.00 0.00 0.00 0.00 0.00 0.00 0.00 0.00 0.00 0.00 0.00 0.00 0.00 0.00 0.00 0.00 0.00 0.00 0.00 0.00 0.00 0.00 0.00 0.00 0.00 0.00 0.00 0.00 0.00 0.00 0.00 0.00 0.00
0.00 0.00 0.00 0.00 0.00 0.00 0.00 0.00 0.00 0.00 0.00 0.00 0.00 0.00 0.00 0.00 0.00 0.00 0.00 0.00 0.00 0.00 0.00 0.00 0.00 0.00 0.00 0.00 0.00 0.00 0.00 0.00 0.00 0.00 0.00 0.00 0.00 0.00 0.00 0.00 0.00 0.00
0.00 0.00 0.00 0.00 0.00 0.00 0.00 0.00 0.00 0.00 0.00 0.00 0.00 0.00 0.00 0.00 0.00 0.00 0.00 0.00 0.00 0.00 0.00 0.00 0.00 0.00 0.00 0.00 0.00 0.00 0.00 0.00 0.00 0.00 0.00 0.00 0.00 0.00 0.00 0.00 0.00 0.00
0.00 0.00 0.00 0.00 0.00 0.00 0.00 0.00 0.00 0.00 0.00 0.00 0.00 0.00 0.00 0.00 0.00 0.00 0.00 0.00 0.00 0.00 0.00 0.00 0.00 0.00 0.00 0.00 0.00 0.00 0.00 0.00 0.00 0.00 0.00 0.00 0.00 0.00 0.00 0.00 0.00 0.00
0.00 0.00 0.00 0.00 0.00 0.00 0.00 0.00 0.00 0.00 0.00 0.00 0.00 0.00 0.00 0.00 0.00 0.00 0.00 0.00 0.00 0.00 0.00 0.00 0.00 0.00 0.00 0.00 0.00 0.00 0.00 0.00 0.00 0.00 0.00 0.00 0.00 0.00 0.00 0.00 0.00 0.00
0.00 0.00 0.00 0.00 0.00 0.00 0.00 0.00 0.00 0.00 0.00 0.00 0.00 0.00 0.00 0.00 0.00 0.00 0.00 0.00 0.00 0.00 0.00 0.00 0.00 0.00 0.00 0.00 0.00 0.00 0.00 0.00 0.00 0.00 0.00 0.00 0.00 0.00 0.00 0.00 0.00 0.00
0.00 0.00 0.00 0.00 0.00 0.00 0.00 0.00 0.00 0.00 0.00 0.00 0.00 0.00 0.00 0.00 0.00 0.00 0.00 0.00 0.00 0.00 0.00 0.00 0.00 0.00 0.00 0.00 0.00 0.00 0.00 0.00 0.00 0.00 0.00 0.00 0.00 0.00 0.00 0.00 0.00 0.00
0.00 0.00 0.00 0.00 0.00 0.00 0.00 0.00 0.00 0.00 0.00 0.00 0.00 0.00 0.00 0.00 0.00 0.00 0.00 0.00 0.00 0.00 0.00 0.00 0.00 0.00 0.00 0.00 0.00 0.00 0.00 0.00 0.00 0.00 0.00 0.00 0.00 0.00 0.00 0.00 0.00 0.00
0.00 0.00 0.00 0.00 0.00 0.00 0.00 0.00 0.00 0.00 0.00 0.00 0.00 0.00 0.00 0.00 0.00 0.00 0.00 0.00 0.00 0.00 0.00 0.00 0.00 0.00 0.00 0.00 0.00 0.00 0.00 0.00 0.00 0.00 0.00 0.00 0.00 0.00 0.00 0.00 0.00 0.00
MSLP
1010.04 1010.33 1010.74 1011.03 1011.21 1011.27 1011.47 1011.72 1011.84 1012.18 1012.36 1012.41 1012.74 1012.83 1012.91 1012.89 1012.89 1013.16 1013.36 1013.54 1013.80 1014.10 1014.27 1014.41 1014.59 1014.86 1015.03 1015.21 1015.30 1015.57 1015.92 1016.18 1016.33 1016.42 1016.62 1016.86 1017.18 1017.33 1017.57 1017.60 1017.65 1017.77
1009.57 1009.83 1010.12 1010.47 1010.83 1010.91 1011.01 1011.04 1011.33 1011.65 1011.92 1012.01 1012.07 1012.22 1012.34 1012.48 1012.60 1012.74 1013.04 1013.33 1013.53 1013.80 1013.91 1014.10 1014.30 1014.54 1014.80 1015.07 1015.24 1015.54 1015.80 1016.01 1016.30 1016.07 1016.54 1016.74 1016.92 1017.03 1017.22 1017.30 1017.42 1017.39
1009.07 1009.45 1009.77 1010.10 1010.33 1010.53 1010.59 1010.62 1010.80 1011.09 1011.41 1011.51 1011.59 1011.72 1011.98 1012.03 1012.33 1012.42 1012.62 1012.89 1013.27 1013.51 1013.74 1013.86 1014.10 1014.30 1014.53 1014.74 1014.98 1015.34 1015.65 1015.86 1016.12 1015.97 1016.28 1016.59 1016.60 1016.86 1016.89 1016.91 1017.15 1017.24
1008.54 1008.74 1009.01 1009.27 1009.54 1009.95 1010.10 1010.42 1010.57 1010.74 1010.89 1011.27 1011.39 1011.33 1011.45 1011.57 1011.84 1012.21 1012.41 1012.54 1012.91 1013.18 1013.39 1013.62 1013.86 1014.07 1014.33 1014.53 1014.77 1015.10 1015.30 1015.51 1015.59 1015.65 1016.09 1016.24 1016.39 1016.51 1016.65 1016.62 1016.80 1017.01
1007.95 1008.21 1008.41 1008.68 1008.95 1009.24 1009.62 1010.03 1010.22 1010.36 1010.57 1010.65 1010.83 1011.01 1011.22 1011.39 1011.60 1011.86 1012.15 1012.39 1012.54 1012.89 1013.12 1013.41 1013.57 1013.83 1014.04 1014.33 1014.53 1014.98 1015.07 1015.34 1015.34 1015.48 1015.86 1016.18 1016.15 1016.28 1016.33 1016.42 1016.66 1016.91
1007.39 1007.62 1007.86 1008.24 1008.53 1008.86 1009.24 1009.51 1009.62 1009.83 1010.09 1010.39 1010.53 1010.57 1010.83 1011.01 1011.24 1011.47 1011.74 1012.12 1012.28 1012.53 1012.83 1013.04 1013.34 1013.51 1013.72 1014.04 1014.27 1014.62 1014.80 1015.09 1015.10 1015.27 1015.60 1015.91 1015.97 1015.89 1016.01 1016.16 1016.45 1016.72
1007.10 1007.36 1007.68 1007.86 1008.21 1008.39 1008.77 1008.97 1009.16 1009.39 1009.60 1009.78 1010.01 1010.36 1010.41 1010.78 1010.98 1011.09 1011.28 1011.62 1011.95 1012.22 1012.42 1012.74 1013.03 1013.24 1013.36 1013.72 1014.04 1014.33 1014.45 1014.62 1014.77 1015.03 1015.36 1015.51 1015.62 1015.77 1015.68 1015.84 1016.12 1016.41
1006.48 1006.71 1007.04 1007.41 1007.80 1008.01 1008.33 1008.48 1008.74 1009.03 1009.10 1009.39 1009.80 1009.83 1009.92 1010.28 1010.57 1010.68 1010.89 1011.16 1011.53 1011.84 1012.07 1012.27 1012.54 1012.83 1012.97 1013.28 1013.77 1014.04 1014.21 1014.15 1014.45 1014.71 1015.07 1015.22 1015.28 1015.57 1015.53 1015.51 1015.72 1016.12
1005.89 1006.30 1006.59 1007.03 1007.41 1007.54 1007.86 1008.01 1008.22 1008.47 1008.59 1009.07 1009.28 1009.45 1009.53 1009.74 1010.04 1010.28 1010.54 1010.77 1011.09 1011.36 1011.66 1011.89 1012.09 1012.36 1012.51 1012.80 1013.21 1013.54 1013.80 1013.84 1013.86 1014.18 1014.65 1014.97 1015.12 1015.16 1015.18 1015.18 1015.48 1015.72
1005.54 1005.83 1006.21 1006.54 1006.98 1007.07 1007.39 1007.48 1007.65 1007.92 1008.15 1008.57 1008.77 1008.91 1009.27 1009.36 1009.48 1009.78 1010.15 1010.47 1010.72 1010.98 1011.22 1011.47 1011.65 1011.84 1012.07 1012.24 1012.62 1012.97 1013.30 1013.48 1013.53 1013.65 1013.95 1014.28 1014.54 1014.71 1014.78 1014.92 1015.10 1015.39
1005.21 1005.47 1005.84 1006.15 1006.45 1006.57 1006.84 1006.97 1007.15 1007.42 1007.65 1008.04 1008.30 1008.60 1008.71 1008.97 1009.22 1009.28 1009.72 1010.10 1010.42 1010.60 1010.80 1011.01 1011.16 1011.34 1011.71 1011.89 1012.04 1012.27 1012.62 1012.97 1013.16 1013.28 1013.42 1013.68 1013.92 1014.12 1014.28 1014.48 1014.66 1014.84
1004.84 1005.09 1005.33 1005.62 1005.86 1006.03 1006.24 1006.41 1006.60 1006.86 1007.18 1007.45 1007.74 1008.16 1008.27 1008.39 1008.77 1008.98 1009.21 1009.62 1009.84 1010.07 1010.24 1010.47 1010.62 1010.86 1011.16 1011.42 1011.60 1011.83 1012.16 1012.45 1012.68 1012.91 1013.03 1013.18 1013.39 1013.57 1013.77 1013.95 1014.18 1014.30
1004.30 1004.53 1004.71 1004.97 1005.18 1005.41 1005.59 1005.80 1006.12 1006.30 1006.59 1006.95 1007.10 1007.51 1007.89 1008.04 1008.16 1008.53 1008.65 1008.97 1009.30 1009.54 1009.80 1009.98 1010.21 1010.36 1010.66 1010.95 1011.21 1011.42 1011.77 1012.15 1012.39 1012.57 1012.68 1012.78 1012.84 1012.97 1013.07 1013.24 1013.47 1013.68
1003.57 1003.78 1004.03 1004.18 1004.41 1004.78 1005.12 1005.33 1005.57 1005.78 1005.98 1006.22 1006.57 1007.12 1007.41 1007.54 1007.71 1007.97 1008.16 1008.41 1008.71 1008.98 1009.18 1009.45 1009.74 1009.98 1010.18 1010.42 1010.71 1010.98 1011.33 1011.66 1011.91 1012.15 1012.30 1012.34 1012.36 1012.39 1012.47 1012.60 1012.71 1012.84
1003.01 1003.28 1003.45 1003.66 1003.95 1004.41 1004.78 1004.98 1005.15 1005.36 1005.57 1005.84 1006.12 1006.45 1006.68 1006.89 1007.04 1007.28 1007.77 1008.15 1008.22 1008.45 1008.74 1008.95 1009.22 1009.39 1009.48 1009.78 1010.24 1010.51 1010.62 1011.03 1011.27 1011.51 1011.71 1011.92 1011.97 1011.92 1011.92 1012.01 1012.04 1012.09
1002.51 1002.83 1003.16 1003.42 1003.80 1004.09 1004.33 1004.54 1004.80 1005.04 1005.28 1005.57 1005.74 1005.89 1006.12 1006.39 1006.66 1006.89 1007.10 1007.53 1007.97 1008.15 1008.30 1008.47 1008.57 1008.54 1008.66 1008.95 1009.21 1009.60 1009.98 1010.22 1010.53 1010.83 1011.09 1011.30 1011.54 1011.65 1011.59 1011.54 1011.48 1011.48
1002.16 1002.53 1002.83 1003.30 1003.41 1003.62 1003.91 1004.24 1004.45 1004.60 1004.91 1005.16 1005.34 1005.51 1005.72 1005.95 1006.28 1006.65 1006.72 1006.80 1007.24 1007.59 1007.86 1007.91 1007.86 1007.80 1008.03 1008.39 1008.66 1008.86 1009.18 1009.65 1010.04 1010.36 1010.54 1010.77 1010.92 1011.12 1011.27 1011.18 1011.07 1010.92
1001.68 1002.07 1002.53 1002.77 1003.01 1003.33 1003.45 1003.65 1003.95 1004.27 1004.54 1004.74 1004.98 1005.24 1005.39 1005.51 1005.92 1006.10 1006.24 1006.33 1006.51 1006.89 1007.22 1007.27 1007.24 1007.16 1007.57 1007.95 1008.24 1008.51 1008.68 1008.95 1009.28 1009.72 1009.98 1010.16 1010.22 1010.34 1010.47 1010.54 1010.57 1010.53
1001.22 1001.72 1002.07 1002.39 1002.60 1002.74 1003.01 1003.30 1003.65 1003.95 1004.21 1004.47 1004.71 1004.68 1004.97 1005.33 1005.41 1005.62 1005.86 1005.89 1006.03 1006.36 1006.60 1006.60 1006.68 1006.71 1007.21 1007.59 1007.91 1008.21 1008.39 1008.48 1008.65 1008.89 1009.22 1009.41 1009.51 1009.60 1009.74 1009.91 1009.98 1010.09
1000.77 1001.24 1001.68 1001.92 1002.12 1002.47 1002.74 1003.07 1003.36 1003.65 1003.71 1003.84 1004.15 1004.42 1004.68 1004.80 1004.97 1005.22 1005.33 1005.57 1005.65 1005.78 1005.91 1005.92 1006.09 1006.22 1006.80 1007.22 1007.54 1007.89 1008.12 1008.33 1008.12 1008.24 1008.34 1008.47 1008.62 1008.78 1008.95 1009.12 1009.28 1009.53
1000.45 1000.86 1001.33 1001.66 1001.91 1002.18 1002.51 1002.80 1003.03 1003.27 1003.57 1003.71 1003.83 1004.01 1004.28 1004.57 1004.68 1004.92 1004.97 1005.09 1005.22 1005.33 1005.59 1005.65 1005.42 1005.59 1006.16 1006.66 1007.09 1007.42 1007.71 1007.97 1007.77 1007.72 1007.78 1007.84 1007.86 1007.97 1008.16 1008.27 1008.42 1008.65
1000.04 1000.57 1000.97 1001.33 1001.62 1001.92 1002.27 1002.51 1002.68 1002.97 1003.28 1003.33 1003.51 1003.62 1003.71 1003.92 1004.21 1004.34 1004.68 1004.89 1004.92 1005.10 1005.27 1005.33 1004.89 1005.01 1005.48 1005.95 1006.39 1006.86 1007.22 1007.66 1007.53 1007.54 1007.57 1007.53 1007.51 1007.47 1007.54 1007.59 1007.71 1007.98
999.57 1000.12 1000.65 1000.98 1001.27 1001.66 1001.95 1002.15 1002.45 1002.71 1002.89 1002.97 1003.51 1003.53 1003.71 1003.84 1003.97 1004.07 1004.12 1004.39 1004.54 1004.66 1004.89 1004.84 1004.71 1004.66 1005.16 1005.53 1005.95 1006.39 1007.09 1007.28 1007.27 1007.30 1007.30 1007.27 1007.15 1007.09 1007.09 1007.09 1007.21 1007.30
999.21 999.77 1000.34 1000.66 1000.95 1001.30 1001.51 1001.71 1001.91 1002.10 1002.42 1002.51 1003.09 1003.34 1003.48 1003.42 1003.48 1003.72 1003.72 1003.80 1004.04 1004.21 1004.21 1004.59 1004.51 1004.42 1004.91 1005.34 1005.72 1006.10 1006.33 1006.68 1006.86 1007.09 1007.09 1007.01 1006.86 1006.74 1006.68 1006.72 1006.62 1006.74
998.86 999.34 999.84 1000.22 1000.59 1000.86 1001.07 1001.39 1001.57 1001.80 1001.97 1002.16 1002.45 1002.72 1002.95 1002.95 1003.10 1003.36 1003.51 1003.47 1003.47 1003.62 1003.77 1004.12 1004.18 1004.22 1004.54 1004.97 1005.51 1005.89 1006.16 1006.10 1006.36 1006.72 1006.98 1006.72 1006.72 1006.83 1006.47 1006.41 1006.34 1006.36
998.54 999.10 999.48 999.84 1000.22 1000.47 1000.59 1000.83 1001.04 1001.39 1001.66 1001.97 1002.18 1002.34 1002.65 1002.72 1002.78 1002.95 1003.24 1003.28 1003.21 1003.42 1003.48 1003.59 1003.89 1003.89 1004.21 1004.71 1005.18 1005.62 1005.91 1005.91 1005.97 1006.51 1006.54 1006.41 1006.59 1006.60 1006.68 1006.39 1006.10 1006.04
Thickness
5839 5838 5836 5834 5834 5834 5834 5834 5833 5831 5830 5830 5829 5828 5828 5829 5829 5828 5826 5825 5823 5821 5820 5818 5817 5815 5813 5811 5810 5808 5805 5803 5801 5801 5799 5797 5795 5793 5791 5790 5789 5787
5842 5841 5840 5837 5837 5837 5838 5838 5837 5835 5833 5833 5833 5833 5832 5831 5831 5830 5828 5827 5825 5822 5821 5820 5818 5817 5815 5813 5811 5809 5806 5804 5802 5802 5800 5798 5796 5795 5793 5792 5791 5789
5846 5845 5843 5842 5841 5840 5840 5841 5840 5839 5837 5836 5836 5836 5835 5834 5833 5832 5831 5828 5826 5824 5823 5821 5819 5818 5817 5815 5813 5810 5808 5805 5804 5804 5801 5799 5798 5797 5796 5795 5793 5791
5850 5849 5849 5847 5847 5845 5844 5843 5841 5841 5840 5838 5838 5838 5837 5837 5835 5833 5831 5830 5828 5826 5824 5822 5820 5819 5817 5816 5814 5811 5810 5808 5806 5806 5802 5800 5800 5798 5798 5797 5795 5793
5854 5854 5853 5851 5850 5849 5847 5845 5844 5843 5842 5840 5840 5839 5838 5837 5836 5834 5832 5831 5829 5827 5825 5823 5821 5820 5818 5817 5815 5812 5811 5809 5809 5808 5803 5801 5801 5800 5800 5799 5796 5794
5857 5856 5855 5854 5853 5852 5849 5848 5847 5846 5844 5843 5842 5841 5840 5838 5837 5836 5833 5831 5830 5828 5827 5824 5822 5821 5819 5817 5816 5814 5812 5811 5810 5809 5805 5803 5802 5802 5802 5801 5798 5795
5859 5858 5857 5855 5855 5853 5851 5851 5849 5848 5847 5845 5844 5842 5841 5839 5837 5837 5835 5833 5831 5829 5828 5826 5824 5822 5821 5819 5816 5815 5814 5813 5812 5810 5807 5805 5804 5803 5803 5802 5800 5797
5862 5861 5860 5858 5857 5855 5854 5853 5851 5850 5849 5847 5845 5844 5844 5841 5839 5838 5837 5835 5833 5830 5829 5828 5826 5824 5822 5821 5818 5815 5815 5815 5814 5812 5808 5807 5806 5804 5804 5804 5802 5799
5865 5864 5863 5860 5859 5857 5856 5855 5854 5853 5852 5849 5847 5847 5845 5844 5842 5840 5838 5836 5834 5832 5830 5830 5828 5827 5825 5823 5820 5817 5816 5816 5816 5815 5811 5809 5807 5806 5806 5805 5803 5801
5867 5866 5865 5862 5861 5860 5859 5858 5857 5856 5854 5852 5850 5849 5847 5845 5844 5843 5839 5837 5835 5833 5832 5831 5830 5829 5827 5825 5824 5821 5818 5817 5817 5817 5814 5812 5810 5809 5808 5807 5805 5803
5869 5868 5866 5864 5863 5862 5861 5860 5860 5859 5856 5855 5852 5851 5849 5848 5846 5844 5841 5838 5836 5835 5833 5832 5831 5830 5828 5826 5826 5825 5821 5819 5818 5818 5817 5815 5813 5812 5810 5809 5807 5806
5870 5869 5868 5867 5865 5864 5864 5863 5862 5861 5859 5857 5855 5853 5852 5850 5848 5845 5844 5841 5838 5837 5836 5834 5833 5832 5830 5828 5827 5826 5824 5821 5819 5818 5818 5817 5815 5814 5813 5811 5810 5808
5873 5872 5871 5870 5868 5867 5866 5865 5864 5863 5862 5860 5858 5855 5853 5853 5850 5848 5846 5844 5842 5839 5837 5836 5835 5833 5832 5830 5828 5827 5825 5821 5820 5818 5817 5818 5817 5817 5816 5815 5813 5812
5877 5875 5874 5874 5872 5870 5868 5867 5866 5866 5864 5863 5860 5858 5855 5854 5854 5851 5849 5847 5845 5842 5840 5839 5837 5835 5834 5833 5830 5828 5826 5824 5822 5819 5818 5818 5818 5819 5819 5818 5817 5817
5879 5877 5876 5876 5873 5871 5869 5869 5867 5866 5866 5864 5862 5860 5858 5857 5856 5854 5851 5849 5847 5845 5844 5842 5840 5839 5838 5836 5833 5831 5829 5827 5825 5823 5821 5820 5820 5820 5820 5821 5820 5821
5880 5878 5877 5875 5873 5872 5870 5869 5868 5866 5865 5864 5863 5862 5861 5859 5858 5856 5854 5851 5849 5847 5846 5844 5844 5845 5844 5841 5839 5836 5833 5831 5829 5826 5825 5822 5822 5822 5821 5822 5823 5824
5881 5879 5877 5874 5873 5873 5871 5870 5869 5868 5867 5865 5865 5864 5863 5861 5858 5856 5856 5856 5853 5850 5849 5848 5849 5849 5848 5845 5843 5841 5838 5835 5832 5829 5828 5826 5825 5824 5824 5824 5825 5826
5883 5880 5877 5875 5875 5873 5873 5872 5870 5869 5868 5866 5866 5865 5863 5862 5860 5858 5858 5858 5857 5855 5852 5852 5854 5854 5851 5848 5845 5843 5841 5839 5836 5833 5831 5830 5829 5828 5828 5828 5827 5828
5884 5881 5878 5876 5876 5875 5874 5873 5871 5870 5869 5868 5867 5866 5864 5863 5862 5861 5860 5859 5859 5858 5856 5857 5857 5856 5853 5850 5847 5845 5842 5841 5840 5837 5836 5835 5834 5833 5832 5831 5831 5830
5886 5883 5879 5877 5877 5876 5874 5873 5871 5870 5871 5869 5868 5867 5865 5864 5863 5862 5861 5861 5861 5861 5860 5860 5861 5859 5856 5852 5849 5846 5843 5842 5842 5842 5842 5841 5840 5839 5837 5836 5835 5833
5887 5884 5880 5878 5877 5875 5874 5873 5872 5871 5870 5870 5869 5868 5867 5866 5865 5864 5863 5863 5863 5862 5861 5862 5864 5864 5860 5855 5852 5849 5844 5843 5843 5844 5844 5845 5845 5844 5842 5841 5840 5837
5889 5885 5881 5879 5877 5875 5874 5873 5873 5871 5870 5870 5870 5869 5869 5868 5867 5866 5865 5864 5864 5863 5862 5864 5867 5867 5863 5859 5856 5852 5847 5844 5844 5844 5844 5845 5846 5846 5845 5845 5843 5840
5889 5886 5882 5879 5878 5876 5874 5874 5873 5871 5871 5870 5868 5868 5868 5868 5867 5867 5867 5866 5865 5865 5863 5864 5867 5867 5864 5861 5858 5854 5848 5845 5844 5843 5843 5844 5846 5847 5846 5846 5845 5843
5890 5887 5882 5879 5878 5876 5875 5875 5873 5872 5872 5872 5869 5868 5868 5869 5869 5868 5868 5868 5867 5867 5866 5865 5866 5866 5863 5859 5857 5854 5850 5849 5846 5843 5841 5843 5844 5845 5845 5846 5846 5844
5891 5887 5883 5881 5879 5877 5877 5875 5874 5874 5874 5873 5871 5869 5868 5869 5869 5868 5867 5869 5869 5868 5868 5866 5865 5866 5863 5858 5855 5852 5850 5849 5847 5842 5841 5842 5841 5840 5842 5843 5844 5844
5891 5888 5884 5882 5880 5878 5878 5877 5876 5875 5874 5872 5871 5870 5869 5868 5869 5868 5867 5868 5868 5868 5868 5867 5865 5864 5862 5859 5855 5850 5847 5847 5845 5842 5842 5841 5839 5837 5837 5838 5841 5841